ROMMA est une association bénévole à but non lucratif. Votre soutien est indispensable : ADHERER à ROMMA ou FAIRE un DON

Briord - (01, Ain)

Bugey (281 m)   Longitude: 05° 29' 13" E   Latitude: 45° 46' 37" N Station partenaire n°15
 

Détail journalier du     <<     >>

Température Precipitation Humidité Pression Vent Dir Rafale Dir. rafale Ensol.
Heure (°C) (mm) (%) (hPa) (km/h) (km/h) (min)
01:00 -4.8092103700---0
02:00 -5.0092103600---0
03:00 -4.8093103600---0
04:00 -3.6094103600---0
05:00 -3.1093103500---0
06:00 -3.5092103600---0
07:00 -4.2093103500---0
08:00 -3.9093103600---0
09:00 -3.2094103600---15
10:00 -0.8094103700---45
11:00 -0.20.292103600---10
12:00 0.5091103603S0
13:00 1.2090103500---0
14:00 3.3085103403S40
15:00 3.308510347NO23ONO25
16:00 2.4088103415NO32NNO10
17:00 2.2089103515NO29NO35
18:00 1.8090103512NO27ONO0
19:00 1.808810358NO23NO0
20:00 -0.5092103506SE0
21:00 -1.2092103506S0
22:00 -2.1093103500---0
23:00 -2.1093103500---0
minuit -2.2094103500---0

Graphique du 05-01-2019

 

Serveur OMMA